Orangeburg, SC

11:30 PM EST on December 04, 2016 (GMT -0500)
Orangeburg Municipal

Weather History for KOGB - August, 2013

Change the Weather History Date:

Thursday, August 29, 2013

  Actual Average Record
Temperature  
Mean Temperature 82 °F 79 °F  
Max Temperature 95 °F 88 °F 99 °F (1954)
Min Temperature 69 °F 69 °F 61 °F (1980)
Degree Days  
Heating Degree Days 0 0  
Month to date heating degree days 0 0  
Since 1 June heating degree days 0 1  
Since 1 July heating degree days 0 0  
Cooling Degree Days 17 14  
Month to date cooling degree days 400 446  
Year to date cooling degree days 1562 1668  
Since 1 June cooling degree days 1300 1365  
Growing Degree Days 32 (Base 50)    
Moisture  
Dew Point 69 °F    
Average Humidity 71    
Maximum Humidity 90    
Minimum Humidity 43    
Precipitation  
Precipitation 0.00 in 0.15 in 5.95 in (1964)
Month to date precipitation 9.57 4.97  
Year to date precipitation 47.31 33.00  
Sea Level Pressure  
Sea Level Pressure 29.93 in    
Wind  
Wind Speed 4 mph (WSW)    
Max Wind Speed 15 mph    
Max Gust Speed 20 mph    
Visibility 8 miles    
Events      
T = Trace of Precipitation, MM = Missing Value Source: NWS Daily Summary

Daily Weather History Graph

Daily Weather History Graph

Search for Another Location

Airport or City:

Trip Planner

Search our weather history database for the weather conditions in past years. The results will help you decide how hot, cold, wet, or windy it might be!

Date:

Astronomy

Aug. 29, 2013 Rise Set
Actual Time 6:55 AM EDT 7:52 PM EDT
Civil Twilight 6:30 AM EDT 8:17 PM EDT
Nautical Twilight 6:00 AM EDT 8:47 PM EDT
Astronomical Twilight 5:28 AM EDT 9:18 PM EDT
Moon 12:54 AM EDT (8/29) 3:10 PM EDT (8/29)
Length of Visible Light 13h 47m
Length of Day
12h 56m
Last Quarter, 38% of the Moon is Illuminated
Aug 29
Last Quarter
Sep 5
New
Sep 12
First Quarter
Sep 19
Full
Sep 26
Last Quarter

Hourly Weather History & Observations

Time (EDT) Temp. Heat Index Dew Point Humidity Pressure Visibility Wind Dir Wind Speed Gust Speed Precip Events Conditions
12:53 AM 73.0 °F - 68.0 °F 84% 29.96 in 7.0 mi SW 4.6 mph - N/A   Clear
1:53 AM 73.0 °F - 66.9 °F 81% 29.96 in 7.0 mi SSW 4.6 mph - N/A   Clear
2:53 AM 71.1 °F - 66.9 °F 87% 29.95 in 6.0 mi SSW 3.5 mph - N/A   Clear
3:53 AM 71.1 °F - 66.9 °F 87% 29.95 in 6.0 mi Calm Calm - N/A   Clear
4:53 AM 70.0 °F - 66.9 °F 90% 29.95 in 6.0 mi Calm Calm - N/A   Clear
5:53 AM 70.0 °F - 66.9 °F 90% 29.94 in 6.0 mi South 3.5 mph - N/A   Clear
6:42 AM 69.8 °F - 66.2 °F 88% 29.95 in 5.0 mi Calm Calm - N/A   Partly Cloudy
6:53 AM 70.0 °F - 66.9 °F 90% 29.95 in 5.0 mi Calm Calm - N/A   Partly Cloudy
7:53 AM 71.1 °F - 66.9 °F 87% 29.96 in 5.0 mi Calm Calm - N/A   Clear
8:53 AM 75.0 °F - 68.0 °F 79% 29.96 in 6.0 mi WSW 5.8 mph - N/A   Haze
9:53 AM 79.0 °F - 70.0 °F 74% 29.95 in 6.0 mi WSW 6.9 mph - N/A   Haze
10:53 AM 84.0 °F 89.6 °F 72.0 °F 67% 29.95 in 7.0 mi SW 4.6 mph - N/A   Clear
11:53 AM 88.0 °F 93.8 °F 71.1 °F 57% 29.94 in 8.0 mi West 4.6 mph - N/A   Clear
12:53 PM 90.0 °F 96.4 °F 71.1 °F 54% 29.92 in 9.0 mi NNW 6.9 mph - N/A   Clear
1:53 PM 91.9 °F 97.4 °F 70.0 °F 48% 29.91 in 10.0 mi Variable 4.6 mph - N/A   Partly Cloudy
2:53 PM 93.0 °F 97.9 °F 69.1 °F 45% 29.90 in 10.0 mi Variable 3.5 mph - N/A   Mostly Cloudy
3:53 PM 95.0 °F 101.3 °F 70.0 °F 44% 29.88 in 10.0 mi NE 5.8 mph - N/A   Scattered Clouds
4:53 PM 93.9 °F 100.8 °F 71.1 °F 47% 29.88 in 10.0 mi Calm Calm - N/A   Partly Cloudy
5:53 PM 93.0 °F 99.0 °F 70.0 °F 47% 29.87 in 10.0 mi WNW 3.5 mph - N/A   Scattered Clouds
6:53 PM 91.9 °F 98.4 °F 71.1 °F 50% 29.87 in 10.0 mi Calm Calm - N/A   Clear
7:53 PM 84.9 °F 94.1 °F 75.9 °F 74% 29.89 in 7.0 mi Calm Calm - N/A   Clear
8:53 PM 82.9 °F 90.2 °F 75.0 °F 77% 29.92 in 7.0 mi ENE 12.7 mph 19.6 mph N/A   Scattered Clouds
9:53 PM 80.1 °F 82.9 °F 69.1 °F 69% 29.94 in 10.0 mi East 4.6 mph - N/A   Scattered Clouds
10:53 PM 78.1 °F - 70.0 °F 76% 29.94 in 10.0 mi NNE 3.5 mph - 0.00 in   Mostly Cloudy
11:53 PM 77.0 °F - 70.0 °F 79% 29.95 in 10.0 mi NE 3.5 mph - N/A   Clear